Bennington, VT

11:42 AM EDT on May 25, 2018 (GMT -0400)
Morse State

Weather History for KDDH - November, 2012

Change the Weather History Date:

Wednesday, November 7, 2012

  Actual Average Record
Temperature  
Mean Temperature 33 °F 41 °F  
Max Temperature 37 °F 51 °F 63 °F (2004)
Min Temperature 28 °F 31 °F 21 °F (2002)
Degree Days  
Heating Degree Days 32 24  
Month to date heating degree days 197 162  
Since 1 July heating degree days 807 983  
Cooling Degree Days 0 0  
Month to date cooling degree days 0 0  
Year to date cooling degree days 476 313  
Moisture  
Dew Point 16 °F    
Average Humidity 45    
Maximum Humidity 61    
Minimum Humidity 29    
Precipitation  
Precipitation 0.00 in 0.12 in 0.40 in (2013)
Month to date precipitation 0.09 0.80  
Year to date precipitation 28.95 35.60  
Sea Level Pressure  
Sea Level Pressure 30.04 in    
Wind  
Wind Speed 6 mph (North)    
Max Wind Speed 14 mph    
Max Gust Speed 20 mph    
Visibility 10 miles    
Events      
T = Trace of Precipitation, MM = Missing Value Source: NWS Daily Summary

Daily Weather History Graph

Daily Weather History Graph

Search for Another Location

Airport or City:

Astronomy

Nov. 07, 2012 Rise Set
Actual Time 6:35 AM EST 4:37 PM EST
Civil Twilight 6:05 AM EST 5:07 PM EST
Nautical Twilight 5:31 AM EST 5:41 PM EST
Astronomical Twilight 4:58 AM EST 6:14 PM EST
Moon No Moon Rise 12:54 PM EST (11/7)
Length of Visible Light 11h 01m
Length of Day
10h 01m
Last Quarter, 43% of the Moon is Illuminated
Nov 7
Last Quarter
Nov 13
New
Nov 20
First Quarter
Nov 28
Full
Dec 6
Last Quarter

Hourly Weather History & Observations

Time (EST) Temp. Windchill Dew Point Humidity Pressure Visibility Wind Dir Wind Speed Gust Speed Precip Events Conditions
12:54 AM 32.0 °F 23.6 °F 12.0 °F 44% 30.16 in 10.0 mi ESE 10.4 mph 19.6 mph N/A   Clear
1:54 AM 28.9 °F 25.2 °F 12.9 °F 51% 30.15 in 10.0 mi North 3.5 mph - N/A   Clear
2:54 AM 30.9 °F 27.5 °F 15.1 °F 52% 30.14 in 10.0 mi East 3.5 mph - N/A   Clear
3:54 AM 28.9 °F 22.8 °F 15.1 °F 56% 30.13 in 10.0 mi North 5.8 mph - N/A   Clear
4:54 AM 30.0 °F 25.2 °F 16.0 °F 56% 30.10 in 10.0 mi Variable 4.6 mph - N/A   Clear
5:54 AM 30.0 °F - 18.0 °F 61% 30.11 in 10.0 mi Calm Calm - N/A   Clear
6:54 AM 30.9 °F 24.3 °F 17.1 °F 57% 30.11 in 10.0 mi North 6.9 mph - N/A   Partly Cloudy
7:54 AM 30.9 °F 26.2 °F 18.0 °F 59% 30.11 in 10.0 mi NNE 4.6 mph - N/A   Clear
8:54 AM 33.1 °F 26.9 °F 18.0 °F 54% 30.09 in 10.0 mi NNE 6.9 mph - N/A   Clear
9:54 AM 34.0 °F 28.8 °F 19.0 °F 54% 30.09 in 10.0 mi Variable 5.8 mph - N/A   Clear
10:54 AM 34.0 °F 28.0 °F 19.0 °F 54% 30.06 in 10.0 mi North 6.9 mph - N/A   Clear
11:54 AM 34.0 °F 27.2 °F 17.1 °F 50% 30.03 in 10.0 mi NNW 8.1 mph - N/A   Clear
12:54 PM 35.1 °F 29.3 °F 12.9 °F 40% 30.00 in 10.0 mi North 6.9 mph - N/A   Clear
1:54 PM 36.0 °F 29.6 °F 10.0 °F 34% 29.98 in 10.0 mi North 8.1 mph - N/A   Clear
2:54 PM 37.0 °F 31.0 °F 8.1 °F 30% 29.98 in 10.0 mi NNE 8.1 mph - N/A   Partly Cloudy
3:54 PM 36.0 °F 31.1 °F 10.0 °F 34% 29.99 in 10.0 mi NW 5.8 mph - N/A   Overcast
4:54 PM 34.0 °F 31.0 °F 16.0 °F 48% 30.00 in 10.0 mi NNW 3.5 mph - N/A   Overcast
5:54 PM 33.1 °F 30.0 °F 19.0 °F 56% 30.00 in 10.0 mi NNW 3.5 mph - N/A   Overcast
6:54 PM 33.1 °F - 19.0 °F 56% 30.00 in 10.0 mi Calm Calm - N/A   Overcast
7:54 PM 33.1 °F 27.7 °F 18.0 °F 54% 29.98 in 10.0 mi NW 5.8 mph - N/A   Overcast
8:54 PM 33.1 °F 27.7 °F 19.9 °F 59% 29.97 in 10.0 mi NNW 5.8 mph - N/A   Overcast
9:54 PM 33.1 °F 30.0 °F 19.0 °F 56% 29.95 in 10.0 mi NNW 3.5 mph - N/A   Overcast
10:54 PM 33.1 °F 26.9 °F 21.0 °F 61% 29.92 in 10.0 mi NNW 6.9 mph - N/A   Overcast
11:54 PM 32.0 °F 25.6 °F 21.0 °F 64% 29.90 in 10.0 mi NNW 6.9 mph - N/A   Overcast